Nucla Hopkins Field Airport, CO

9:46 AM MST on December 16, 2017 (GMT -0700)
Nucla Hopkins Field Airport

Weather History for KAIB - December, 2013

Change the Weather History Date:

Wednesday, December 4, 2013

  Actual Average (KTEX) Record (KTEX)
Temperature  
Mean Temperature 24 °F -  
Max Temperature 44 °F 32 °F 53 °F (2007)
Min Temperature 3 °F 16 °F 3 °F (2013)
Degree Days  
Heating Degree Days 42    
Moisture  
Dew Point 20 °F    
Average Humidity 83    
Maximum Humidity 100    
Minimum Humidity 49    
Precipitation  
Precipitation 0.00 in - - ()
Sea Level Pressure  
Sea Level Pressure 29.71 in    
Wind  
Wind Speed 15 mph (WNW)    
Max Wind Speed 34 mph    
Max Gust Speed 45 mph    
Visibility 6 miles    
Events Snow    
Averages and records for this station are not official NWS values.
T = Trace of Precipitation, MM = Missing Value Source: NWS Daily Summary

Daily Weather History Graph

Daily Weather History Graph

Search for Another Location

Airport or City:

Trip Planner

Search our weather history database for the weather conditions in past years. The results will help you decide how hot, cold, wet, or windy it might be!

Date:

Astronomy

Dec. 04, 2013 Rise Set
Actual Time 7:15 AM MST 4:53 PM MST
Civil Twilight 6:45 AM MST 5:23 PM MST
Nautical Twilight 6:13 AM MST 5:56 PM MST
Astronomical Twilight 5:41 AM MST 6:28 PM MST
Moon 8:46 AM MST (12/4) 7:07 PM MST (12/4)
Length of Visible Light 10h 37m
Length of Day
9h 38m
Waxing Crescent, 5% of the Moon is Illuminated
Dec 4
Waxing Crescent
Dec 9
First Quarter
Dec 17
Full
Dec 25
Last Quarter
Jan 1
New

Hourly Weather History & Observations

Time (MST) Temp. Windchill Dew Point Humidity Pressure Visibility Wind Dir Wind Speed Gust Speed Precip Events Conditions
12:15 AM 44.6 °F 35.9 °F 26.6 °F 49% 29.46 in 10.0 mi SSW 23.0 mph 39.1 mph N/A   Overcast
12:35 AM 44.6 °F 34.9 °F 26.6 °F 49% 29.43 in 10.0 mi SSW 28.8 mph 39.1 mph N/A   Overcast
12:55 AM 44.6 °F 35.1 °F 26.6 °F 49% 29.43 in 10.0 mi SSW 27.6 mph 39.1 mph N/A   Overcast
1:15 AM 44.6 °F 34.6 °F 26.6 °F 49% 29.43 in 10.0 mi SSW 31.1 mph 39.1 mph N/A   Mostly Cloudy
1:35 AM 44.6 °F 34.4 °F 26.6 °F 49% 29.44 in 10.0 mi SSW 32.2 mph 44.9 mph N/A   Overcast
1:55 AM 44.6 °F 35.5 °F 26.6 °F 49% 29.44 in 10.0 mi SSW 25.3 mph 35.7 mph N/A   Overcast
2:15 AM 44.6 °F 34.1 °F 26.6 °F 49% 29.44 in 10.0 mi SSW 34.5 mph 43.7 mph N/A   Overcast
2:35 AM 42.8 °F 31.6 °F 28.4 °F 57% 29.44 in 10.0 mi SSW 34.5 mph 44.9 mph N/A   Overcast
2:55 AM 42.8 °F 32.7 °F 28.4 °F 57% 29.46 in 10.0 mi SW 27.6 mph 43.7 mph N/A   Overcast
3:15 AM 32.0 °F 20.8 °F 28.4 °F 87% 29.47 in 10.0 mi NW 17.3 mph - N/A   Overcast
3:35 AM 32.0 °F 20.8 °F 28.4 °F 87% 29.47 in 7.0 mi NW 17.3 mph 25.3 mph N/A Snow Light Snow
3:55 AM 32.0 °F 21.6 °F 28.4 °F 87% 29.46 in 4.0 mi NW 15.0 mph 18.4 mph N/A Snow Light Snow
4:15 AM 30.2 °F 17.8 °F 28.4 °F 93% 29.47 in 2.5 mi WNW 19.6 mph - N/A Snow Light Snow
4:35 AM 28.4 °F 19.1 °F 28.4 °F 100% 29.49 in 1.5 mi NW 10.4 mph - N/A Snow Light Snow
4:55 AM 28.4 °F 15.4 °F 28.4 °F 100% 29.50 in 1.0 mi NW 19.6 mph 23.0 mph N/A Snow Snow
5:15 AM 28.4 °F 14.7 °F 26.6 °F 93% 29.51 in 0.8 mi NW 21.9 mph 26.5 mph N/A Snow Snow
5:35 AM 26.6 °F 14.3 °F 26.6 °F 100% 29.54 in 0.8 mi WNW 16.1 mph 24.2 mph N/A Snow Snow
5:55 AM 26.6 °F 15.2 °F 24.8 °F 93% 29.56 in 1.0 mi WNW 13.8 mph 18.4 mph N/A Snow Snow
6:15 AM 26.6 °F 17.5 °F 24.8 °F 93% 29.57 in 1.5 mi WNW 9.2 mph - N/A Snow Light Snow
6:35 AM 26.6 °F 20.0 °F 24.8 °F 93% 29.59 in 1.0 mi WNW 5.8 mph - N/A Snow Snow
6:55 AM 26.6 °F 20.0 °F 24.8 °F 93% 29.59 in 0.8 mi NW 5.8 mph - N/A Snow Snow
7:15 AM 26.6 °F 21.2 °F 24.8 °F 93% 29.60 in 0.8 mi NW 4.6 mph - N/A Snow Snow
7:35 AM 26.6 °F 21.2 °F 24.8 °F 93% 29.60 in 0.8 mi NW 4.6 mph - N/A Snow Snow
7:55 AM 26.6 °F - 24.8 °F 93% 29.63 in 0.2 mi Calm Calm - N/A Snow Snow
8:15 AM 26.6 °F - 24.8 °F 93% 29.64 in 0.5 mi Calm Calm - N/A Snow Snow
8:35 AM 26.6 °F - 24.8 °F 93% 29.66 in 0.5 mi Calm Calm - N/A Snow Snow
8:55 AM 26.6 °F - 24.8 °F 93% 29.64 in 1.2 mi Calm Calm - N/A Snow Light Snow
9:15 AM 26.6 °F - 23.0 °F 86% 29.65 in 1.5 mi Calm Calm - N/A Snow Light Snow
9:35 AM 26.6 °F - 24.8 °F 93% 29.65 in 5.0 mi Calm Calm - N/A Snow Light Snow
9:55 AM 26.6 °F 22.6 °F 24.8 °F 93% 29.66 in 1.5 mi SSE 3.5 mph - N/A Snow Light Snow
10:15 AM 26.6 °F - 24.8 °F 93% 29.65 in 1.0 mi Calm Calm - N/A Snow Light Snow
10:35 AM 26.6 °F 21.2 °F 24.8 °F 93% 29.69 in 2.0 mi WSW 4.6 mph - N/A Snow Light Snow
10:55 AM 26.6 °F - 24.8 °F 93% 29.69 in 0.8 mi Calm Calm - N/A Snow Light Snow
11:15 AM 26.6 °F 18.2 °F 24.8 °F 93% 29.69 in 1.5 mi NW 8.1 mph - N/A Snow Light Snow
11:35 AM 26.6 °F 18.2 °F 24.8 °F 93% 29.71 in 3.0 mi NW 8.1 mph - N/A Snow Light Snow
11:55 AM 26.6 °F 16.2 °F 23.0 °F 86% 29.67 in 10.0 mi NNW 11.5 mph - N/A   Overcast
12:15 PM 26.6 °F 15.7 °F 21.2 °F 80% 29.68 in 10.0 mi NW 12.7 mph - N/A   Overcast
12:35 PM 26.6 °F 16.2 °F 21.2 °F 80% 29.69 in 10.0 mi WNW 11.5 mph - N/A   Overcast
12:55 PM 24.8 °F 14.6 °F 19.4 °F 80% 29.71 in 10.0 mi NW 10.4 mph - N/A   Overcast
1:15 PM 24.8 °F 14.0 °F 19.4 °F 80% 29.71 in 10.0 mi NW 11.5 mph 16.1 mph N/A   Overcast
1:35 PM 24.8 °F 14.0 °F 19.4 °F 80% 29.72 in 10.0 mi NW 11.5 mph - N/A   Overcast
1:55 PM 23.0 °F 13.1 °F 17.6 °F 80% 29.73 in 7.0 mi NW 9.2 mph - N/A Snow Light Snow
2:15 PM 24.8 °F 14.0 °F 17.6 °F 74% 29.73 in 7.0 mi NW 11.5 mph - N/A Snow Light Snow
2:35 PM 23.0 °F 12.4 °F 17.6 °F 80% 29.75 in 10.0 mi NW 10.4 mph - N/A   Overcast
2:55 PM 23.0 °F 15.8 °F 17.6 °F 80% 29.77 in 10.0 mi NW 5.8 mph 10.4 mph N/A   Mostly Cloudy
3:15 PM 23.0 °F 12.4 °F 17.6 °F 80% 29.78 in 10.0 mi WNW 10.4 mph - N/A   Overcast
3:35 PM 23.0 °F 13.1 °F 15.8 °F 74% 29.79 in 10.0 mi NW 9.2 mph - N/A   Overcast
3:55 PM 21.2 °F 10.1 °F 17.6 °F 86% 29.82 in 10.0 mi NW 10.4 mph - N/A Snow Light Snow
4:15 PM 21.2 °F 8.9 °F 17.6 °F 86% 29.83 in 2.5 mi NW 12.7 mph - N/A Snow Light Snow
4:35 PM 21.2 °F 10.9 °F 17.6 °F 86% 29.85 in 4.0 mi NW 9.2 mph - N/A Snow Light Snow
4:55 PM 19.4 °F 8.6 °F 17.6 °F 93% 29.86 in 2.5 mi NW 9.2 mph - N/A Snow Light Snow
5:15 PM 19.4 °F 11.5 °F 17.6 °F 93% 29.88 in 2.5 mi NW 5.8 mph - N/A Snow Light Snow
5:35 PM 19.4 °F 10.4 °F 17.6 °F 93% 29.89 in 3.0 mi WNW 6.9 mph - N/A Snow Light Snow
5:55 PM 19.4 °F 12.8 °F 15.8 °F 86% 29.90 in 5.0 mi West 4.6 mph - N/A Snow Light Snow
6:15 PM 19.4 °F 12.8 °F 14.0 °F 80% 29.92 in 2.5 mi NW 4.6 mph - N/A Snow Light Snow
6:35 PM 19.4 °F 14.3 °F 14.0 °F 80% 29.92 in 5.0 mi West 3.5 mph - N/A Snow Light Snow
6:55 PM 19.4 °F - 14.0 °F 80% 29.94 in 5.0 mi Calm Calm - N/A Snow Light Snow
7:15 PM 19.4 °F - 12.2 °F 74% 29.94 in 10.0 mi Calm Calm - N/A   Overcast
7:35 PM 17.6 °F - 12.2 °F 79% 29.94 in 10.0 mi North - - N/A   Overcast
7:55 PM 15.8 °F - 14.0 °F 93% 29.94 in 10.0 mi North - - N/A   Scattered Clouds
8:15 PM 14.0 °F 8.2 °F 12.2 °F 93% 29.94 in 10.0 mi SE 3.5 mph - N/A   Clear
8:35 PM 14.0 °F 8.2 °F 12.2 °F 93% 29.95 in 10.0 mi SSE 3.5 mph - N/A   Clear
8:55 PM 14.0 °F 8.2 °F 12.2 °F 93% 29.95 in 10.0 mi SE 3.5 mph - N/A   Clear
9:15 PM 12.2 °F 6.1 °F 10.4 °F 92% 29.95 in 10.0 mi ESE 3.5 mph - N/A   Scattered Clouds
9:35 PM 10.4 °F -1.5 °F 8.6 °F 92% 29.96 in 10.0 mi East 8.1 mph - N/A   Overcast
9:55 PM 8.6 °F -5.5 °F 6.8 °F 92% 29.97 in 10.0 mi East 10.4 mph - N/A   Scattered Clouds
10:15 PM 8.6 °F -2.6 °F 5.0 °F 85% 29.97 in 10.0 mi East 6.9 mph - N/A   Clear
10:35 PM 6.8 °F -2.0 °F 3.2 °F 85% 29.97 in 10.0 mi East 4.6 mph - N/A   Clear
10:55 PM 6.8 °F -3.5 °F 3.2 °F 85% 29.98 in 10.0 mi ESE 5.8 mph - N/A   Clear
11:15 PM 5.0 °F -8.1 °F 1.4 °F 85% 29.98 in 10.0 mi ESE 8.1 mph - N/A   Clear
11:35 PM 3.2 °F -11.3 °F 1.4 °F 92% 29.98 in 10.0 mi ESE 9.2 mph - N/A   Clear
11:55 PM 3.2 °F -9.1 °F -0.4 °F 85% 29.98 in 10.0 mi East 6.9 mph - N/A   Clear